Meteo pe oră la Florianópolis

Astăzi, 31 Octombrie, Sâmbătă

Timp Temperatura Precipitaţii Vânt Presiune Umiditate
00:00 +16°C° 0 mm 3 m/s 767 mmHg 79%
01:00 +16°C° 0 mm 3 m/s 766 mmHg 78%
02:00 +16°C° 0 mm 3 m/s 766 mmHg 78%
03:00 +17°C° 0 mm 3 m/s 766 mmHg 77%
04:00 +17°C° 0 mm 3 m/s 766 mmHg 78%
05:00 +17°C° 0 mm 3 m/s 765 mmHg 80%
06:00 +17°C° 0 mm 3 m/s 765 mmHg 81%
07:00 +18°C° 0 mm 3 m/s 766 mmHg 75%
08:00 +20°C° 0 mm 3 m/s 766 mmHg 68%
09:00 +21°C° 0 mm 4 m/s 766 mmHg 63%
10:00 +22°C° 0 mm 3 m/s 766 mmHg 61%
11:00 +22°C° 0 mm 3 m/s 766 mmHg 59%
12:00 +22°C° 0 mm 3 m/s 766 mmHg 57%
13:00 +22°C° 0 mm 3 m/s 765 mmHg 57%
14:00 +22°C° 0 mm 4 m/s 765 mmHg 58%
15:00 +22°C° 0 mm 4 m/s 764 mmHg 59%
16:00 +21°C° 0.2 mm 4 m/s 764 mmHg 67%
17:00 +20°C° 0.2 mm 4 m/s 765 mmHg 75%
18:00 +19°C° 0.2 mm 4 m/s 765 mmHg 83%
19:00 +18°C° 0.2 mm 4 m/s 765 mmHg 84%
20:00 +18°C° 0.2 mm 3 m/s 765 mmHg 85%
21:00 +18°C° 0.2 mm 3 m/s 766 mmHg 85%
22:00 +18°C° 0.1 mm 3 m/s 766 mmHg 85%
23:00 +18°C° 0.1 mm 2 m/s 765 mmHg 84%

Mâine, 1 Noiembrie, Duminică

Timp Temperatura Precipitaţii Vânt Presiune Umiditate
00:00 +18°C° 0.1 mm 2 m/s 765 mmHg 84%
01:00 +17°C° 0.2 mm 3 m/s 765 mmHg 86%
02:00 +17°C° 0.2 mm 3 m/s 764 mmHg 88%
03:00 +16°C° 0.2 mm 3 m/s 764 mmHg 89%
04:00 +16°C° 0.3 mm 3 m/s 764 mmHg 89%
05:00 +17°C° 0.3 mm 3 m/s 764 mmHg 88%
06:00 +17°C° 0.3 mm 3 m/s 764 mmHg 88%
07:00 +17°C° 0.3 mm 3 m/s 764 mmHg 86%
08:00 +18°C° 0.3 mm 4 m/s 765 mmHg 85%
09:00 +18°C° 0.3 mm 4 m/s 765 mmHg 83%
10:00 +19°C° 0.1 mm 4 m/s 765 mmHg 78%
11:00 +20°C° 0.1 mm 4 m/s 765 mmHg 73%
12:00 +21°C° 0.1 mm 4 m/s 764 mmHg 68%
13:00 +21°C° 0 mm 4 m/s 764 mmHg 66%
14:00 +21°C° 0 mm 5 m/s 764 mmHg 64%
15:00 +21°C° 0 mm 5 m/s 763 mmHg 62%
16:00 +20°C° 0 mm 4 m/s 764 mmHg 65%
17:00 +20°C° 0 mm 4 m/s 764 mmHg 68%
18:00 +19°C° 0 mm 4 m/s 764 mmHg 71%
19:00 +18°C° 0 mm 4 m/s 764 mmHg 72%
20:00 +18°C° 0 mm 3 m/s 764 mmHg 73%
21:00 +17°C° 0 mm 3 m/s 764 mmHg 75%
22:00 +17°C° 0 mm 3 m/s 764 mmHg 74%
23:00 +17°C° 0 mm 3 m/s 764 mmHg 73%

Poimâine, 2 Noiembrie, Luni

Timp Temperatura Precipitaţii Vânt Presiune Umiditate
00:00 +17°C° 0 mm 3 m/s 764 mmHg 72%
01:00 +17°C° 0 mm 2 m/s 763 mmHg 73%
02:00 +17°C° 0 mm 2 m/s 763 mmHg 73%
03:00 +17°C° 0 mm 2 m/s 762 mmHg 74%
04:00 +16°C° 0 mm 2 m/s 763 mmHg 76%
05:00 +16°C° 0 mm 2 m/s 763 mmHg 78%
06:00 +16°C° 0 mm 2 m/s 763 mmHg 80%
07:00 +19°C° 0 mm 1 m/s 763 mmHg 70%
08:00 +21°C° 0 mm 1 m/s 763 mmHg 60%
09:00 +23°C° 0 mm 1 m/s 764 mmHg 50%
10:00 +23°C° 0 mm 2 m/s 764 mmHg 48%
11:00 +24°C° 0 mm 2 m/s 763 mmHg 46%
12:00 +24°C° 0 mm 3 m/s 763 mmHg 45%
13:00 +24°C° 0 mm 3 m/s 763 mmHg 47%
14:00 +24°C° 0 mm 3 m/s 762 mmHg 49%
15:00 +24°C° 0 mm 3 m/s 762 mmHg 51%
16:00 +22°C° 0 mm 3 m/s 762 mmHg 55%
17:00 +21°C° 0 mm 3 m/s 762 mmHg 60%
18:00 +20°C° 0 mm 2 m/s 762 mmHg 65%
19:00 +19°C° 0 mm 2 m/s 762 mmHg 68%
20:00 +18°C° 0 mm 2 m/s 762 mmHg 71%
21:00 +18°C° 0 mm 1 m/s 763 mmHg 74%
22:00 +18°C° 0 mm 1 m/s 763 mmHg 76%
23:00 +18°C° 0 mm 1 m/s 763 mmHg 78%

3 Noiembrie, Marţi

Timp Temperatura Precipitaţii Vânt Presiune Umiditate
00:00 +16°C° 0 mm 1 m/s 763 mmHg 79%
01:00 +16°C° 0 mm 1 m/s 762 mmHg 79%
02:00 +16°C° 0 mm 1 m/s 762 mmHg 79%
03:00 +16°C° 0 mm 1 m/s 762 mmHg 79%
04:00 +16°C° 0 mm 1 m/s 762 mmHg 79%
05:00 +16°C° 0 mm 1 m/s 762 mmHg 79%
06:00 +16°C° 0 mm 1 m/s 762 mmHg 79%
07:00 +19°C° 0 mm 1 m/s 763 mmHg 70%
08:00 +22°C° 0 mm 1 m/s 763 mmHg 61%
09:00 +24°C° 0 mm 1 m/s 763 mmHg 53%
10:00 +24°C° 0 mm 2 m/s 763 mmHg 52%
11:00 +24°C° 0 mm 3 m/s 763 mmHg 52%
12:00 +25°C° 0 mm 3 m/s 763 mmHg 51%
13:00 +24°C° 0 mm 3 m/s 763 mmHg 53%
14:00 +23°C° 0 mm 4 m/s 762 mmHg 56%
15:00 +22°C° 0 mm 4 m/s 762 mmHg 58%
16:00 +21°C° 0 mm 4 m/s 762 mmHg 64%
17:00 +21°C° 0 mm 4 m/s 763 mmHg 71%
18:00 +20°C° 0 mm 4 m/s 763 mmHg 77%
19:00 +19°C° 0.3 mm 4 m/s 763 mmHg 81%
20:00 +19°C° 0.3 mm 3 m/s 764 mmHg 84%
21:00 +18°C° 0.3 mm 3 m/s 764 mmHg 88%
22:00 +18°C° 0.3 mm 3 m/s 765 mmHg 87%
23:00 +18°C° 0.3 mm 3 m/s 765 mmHg 86%

4 Noiembrie, Miercuri

Timp Temperatura Precipitaţii Vânt Presiune Umiditate
00:00 +18°C° 0.3 mm 3 m/s 765 mmHg 85%
01:00 +18°C° 0.1 mm 2 m/s 764 mmHg 85%
02:00 +17°C° 0.1 mm 2 m/s 764 mmHg 86%
03:00 +17°C° 0.1 mm 2 m/s 764 mmHg 86%
04:00 +17°C° 0.4 mm 2 m/s 764 mmHg 87%
05:00 +17°C° 0.4 mm 2 m/s 765 mmHg 88%
06:00 +17°C° 0.4 mm 3 m/s 765 mmHg 89%
07:00 +17°C° 0.7 mm 3 m/s 765 mmHg 88%
08:00 +17°C° 0.7 mm 3 m/s 766 mmHg 87%
09:00 +18°C° 0.7 mm 3 m/s 766 mmHg 86%
10:00 +18°C° 0.2 mm 3 m/s 766 mmHg 82%
11:00 +19°C° 0.2 mm 3 m/s 766 mmHg 77%
12:00 +19°C° 0.2 mm 3 m/s 766 mmHg 73%
13:00 +20°C° 0 mm 4 m/s 766 mmHg 67%
14:00 +20°C° 0 mm 4 m/s 766 mmHg 62%
15:00 +21°C° 0 mm 4 m/s 766 mmHg 57%
16:00 +20°C° 0 mm 4 m/s 766 mmHg 59%
17:00 +20°C° 0 mm 3 m/s 766 mmHg 61%
18:00 +19°C° 0 mm 3 m/s 766 mmHg 63%
19:00 +18°C° 0 mm 3 m/s 766 mmHg 66%
20:00 +18°C° 0 mm 3 m/s 767 mmHg 69%
21:00 +17°C° 0 mm 3 m/s 767 mmHg 72%
22:00 +17°C° 0 mm 3 m/s 767 mmHg 73%
23:00 +16°C° 0 mm 2 m/s 767 mmHg 73%

5 Noiembrie, Joi

Timp Temperatura Precipitaţii Vânt Presiune Umiditate
00:00 +16°C° 0 mm 2 m/s 767 mmHg 74%
01:00 +16°C° 0.1 mm 2 m/s 766 mmHg 74%
02:00 +16°C° 0.1 mm 2 m/s 766 mmHg 74%
03:00 +17°C° 0.1 mm 2 m/s 766 mmHg 74%
04:00 +17°C° 0.2 mm 2 m/s 766 mmHg 75%
05:00 +17°C° 0.2 mm 2 m/s 766 mmHg 76%
06:00 +17°C° 0.2 mm 2 m/s 766 mmHg 78%
07:00 +18°C° 0.2 mm 2 m/s 766 mmHg 76%
08:00 +19°C° 0.2 mm 3 m/s 766 mmHg 75%
09:00 +20°C° 0.2 mm 3 m/s 767 mmHg 74%
10:00 +21°C° 0.1 mm 3 m/s 766 mmHg 69%
11:00 +22°C° 0.1 mm 4 m/s 766 mmHg 64%
12:00 +22°C° 0.1 mm 4 m/s 766 mmHg 60%
13:00 +23°C° 0 mm 4 m/s 766 mmHg 58%
14:00 +23°C° 0 mm 4 m/s 765 mmHg 56%
15:00 +23°C° 0 mm 4 m/s 765 mmHg 54%
16:00 +22°C° 0.1 mm 4 m/s 764 mmHg 62%
17:00 +21°C° 0.1 mm 4 m/s 764 mmHg 71%
18:00 +20°C° 0.1 mm 4 m/s 764 mmHg 79%
19:00 +20°C° 0.2 mm 4 m/s 765 mmHg 82%
20:00 +19°C° 0.2 mm 4 m/s 765 mmHg 85%
21:00 +19°C° 0.2 mm 3 m/s 765 mmHg 88%
22:00 +19°C° 0.2 mm 3 m/s 765 mmHg 88%
23:00 +19°C° 0.2 mm 3 m/s 765 mmHg 87%
Arată mai mult

Formular de consimțământ

Meteoprog și furnizorii noștri de servicii pot stoca și accesa date personale, precum cookies, identificatori de dispozitiv sau alte tehnologii similare pe dispozitivul dumneavoastră și procesa astfel de date pentru a personaliza conținutul și reclamele, dar și pentru a oferi caracteristici de social media și pentru a analiza traficul.

  • Stocarea și/sau accesarea informațiilor pe dispozitivul dumneavoastră

    Cookies, identificatori de dispozitiv sau alte informații pot fi stocate sau accesate pe dispozitiv în scopurile indicate mai sus.

  • Reclame și conținut personalizat, evaluarea reclamelor și a conținutului, informații despre audiențe și dezvoltarea produselor

    Reclamele și conținutul pot fi personalizate pe baza unui profil. Pot fi adăugate date suplimentare pentru a personaliza mai bine reclamele și conținutul. Performanța reclamelor și conținutului poate fi măsurată. Pot fi obținute informații despre utilizatorii care au văzut reclamele și conținutul. Aceste date pot fi utilizate pentru a dezvolta sau îmbunătăți experiența utilizatorilor, sistemele și software-ul.

Dând clic pe ‘Sunt de acord’, permiteți utilizarea cookie-urilor menționate, a identificatorilor de dispozitiv, balizelor web sau altor tehnologii similare. Setările pot fi modificate din browser-ul dispozitivului dumneavoastră.

În anumite scopuri, interesele legitime pot prima asupra consimțământului. Puteți citi mai multe informații în acest sens în Politica privind Confidențialitatea Datelor și Cookie.